Regional Weather Roundup
Issued by NWS Upton, NY

Current Version | Previous Version | Text Only | Print | Product List | Glossary Off
Versions: 1 2 3 4 5 6 7 8 9 10 11 12 13 14 15 16 17 18 19 20 21 22 23 24 25 26 27 28 29 30 31 32 33 34 35 36 37 38 39 40 41 42 43 44 45 46 47 48 49 50
000 ASUS41 KOKX 280508 RWROKX REGIONAL WEATHER ROUNDUP NATIONAL WEATHER SERVICE NEW YORK NY 100 AM EDT THU MAY 28 2015 NOTE: "FAIR" INDICATES FEW OR NO CLOUDS BELOW 12,000 FEET WITH NO SIGNIFICANT WEATHER AND/OR OBSTRUCTIONS TO VISIBILITY. NYZ071-072-176-178-NJZ106-104-280600- NEW YORK CITY METRO AREA CITY SKY/WX TMP DP RH WIND PRES REMARKS CENTRAL PARK PTCLDY 71 66 84 SW5 30.16S LAGUARDIA APRT MOCLDY 69 62 78 S10 30.12F KENNEDY INTL MOCLDY 61 57 87 S10 30.15F NEWARK/LIBERTY MOCLDY 71 67 87 S9 30.13F BRNX BOT. GARD N/A 64 63 94 SE1 30.13F TETERBORO PTCLDY 70 67 90 S6 30.11F $$ NYZ177-179-078>081-280600- LONG ISLAND NEW YORK CITY SKY/WX TMP DP RH WIND PRES REMARKS FARMINGDALE MOCLDY 65 60 84 SW13 30.15F ISLIP MOCLDY 65 60 84 SW13 30.14F SHIRLEY PTCLDY 64 59 83 SW10 30.17F WESTHAMPTON PTCLDY 63 59 87 SW10G20 30.18F MONTAUK POINT N/A 61 57 87 S9 30.18F $$ NYZ052-065-067-280600- HUDSON VALLEY CITY SKY/WX TMP DP RH WIND PRES REMARKS WHITE PLAINS PTCLDY 64 61 90 CALM 30.13F NEWBURGH CLEAR 66 66 100 CALM 30.13S MONTGOMERY CLOUDY 63 63 100 N3 30.11F FOG POUGHKEEPSIE PTCLDY 65 63 93 CALM 30.10F FOG ALBANY CLOUDY 68 65 90 S7 30.07F $$ NJZ001-105-106-008-010-013-015-019>022-104-280600- NEW JERSEY CITY SKY/WX TMP DP RH WIND PRES REMARKS NEWARK/LIBERTY MOCLDY 71 67 87 S9 30.13F TETERBORO PTCLDY 70 67 90 S6 30.11F CALDWELL CLOUDY 68 66 93 CALM 30.13F MORRISTOWN CLOUDY 70 66 88 CALM 30.14R FOG SOMERVILLE CLOUDY 66 64 93 CALM 30.12S FOG SUSSEX CLOUDY 67 65 93 SW5 30.14F FOG ANDOVER N/A 65 65 100 CALM 30.14F TRENTON PTCLDY 70 68 93 S6 30.14F MILLVILLE PTCLDY 69 65 86 CALM 30.15F ATLANTIC CITY PTCLDY 67 62 84 S7 30.17F WRIGHTSTOWN MOCLDY 68 66 94 S7 30.13F TOMS RIVER MOCLDY N/A N/A N/A S3 30.16F BELMAR MOCLDY 70 61 73 SW7 30.16S $$ PAZ047>061-062-071-280600- EASTERN PENNSYLVANIA CITY SKY/WX TMP DP RH WIND PRES REMARKS PHILADELPHIA MOCLDY 72 69 90 S5 30.15F ALLENTOWN FOG 63 63 100 CALM 30.14S VSB 1/4 SCRANTON CLEAR 65 62 90 CALM 30.13F FOG $$ CTZ002-004>006-009-010-012-RIZ004-006-007-MAZ004-011-015-280600- SOUTHERN NEW ENGLAND IN CT CITY SKY/WX TMP DP RH WIND PRES REMARKS BRADLEY INTL CLOUDY 66 63 90 S9 30.11S HARTFORD MOCLDY 66 62 87 S7 30.12S DANBURY PTCLDY 66 62 87 SW5 30.15S FOG WTRBRY/OXFORD CLOUDY 64 59 82 S5 30.16S BRIDGEPORT CLOUDY 64 60 87 SW3 30.13F MERIDEN CLOUDY 65 61 87 CALM 30.13F NEW HAVEN CLOUDY 63 60 90 CALM 30.14F CHESTER FAIR 64 61 88 S8 30.16F GROTON MOCLDY 62 58 86 S10 30.15F WILLIMANTIC CLOUDY 66 61 84 S6 30.14F IN RI CITY SKY/WX TMP DP RH WIND PRES REMARKS PROVIDENCE PTCLDY 64 59 83 S10 30.16F BLOCK ISLAND PTCLDY 59 55 88 SW15G21 30.19S WESTERLY CLOUDY 61 57 87 S9 30.18F IN MA CITY SKY/WX TMP DP RH WIND PRES REMARKS BOSTON CLOUDY 67 61 81 S13 30.11F WORCESTER CLOUDY 66 61 84 S14 30.13F WESTFIELD CLOUDY 67 64 90 S8 30.11S PROVINCETOWN PTCLDY 61 57 88 SW15 30.16F NANTUCKET PTCLDY 60 57 89 S9 30.22F $$ ANZ330-335-338-340-345-350-353-355-280600- COASTAL MARINE OBSERVATIONS STATION/POSITION TIME SKY/WX TEMP WIND PRES VSBY WAVE AIR SEA DIR/SP/G HT/PER (UTC) (F) (DEG/KT/KT) (MB) (MI) (FT/S) NY HARB ENTRANCE 0450 58 50 200/ 17/ 19 1020.2 4/ 6 4S FIRE IS 0403 56 N/A 5/ 6 20S FIRE ISLAND 0450 61 57 200/ 12/ 16 1021.6 5/ 6 GREAT SOUTH BAY 0400 64 67 240/ 16/ 19 N/A 23SW MTP 0450 59 54 220/ 14/ 16 1021.7 4/ 6 HUDSON CANYON NOT AVBL KINGS POINT 0400 65 60 190/ 8/ 10 1020.0 CENTRAL LI SOUND 0400 62 56 210/ 12/ 14 N/A EASTERN LI SOUND 0400 60 220/ 8/ 10 N/A ROBBINS REEF 0400 68 170/ 7/ 8 1019.4 $$ >>>>>>>>>>>>>>>>>>>>>>>>>>>> KEY <<<<<<<<<<<<<<<<<<<<<<<<<<< > < > SKY/WX - SKY CONDITION/PRESENT WEATHER < > TMP - TEMPERATURE IN FAHRENHEIT < > DP - DEWPOINT IN FAHRENHEIT < > RH - RELATIVE HUMIDITY IN PERCENT < > WIND - DIRECTION AND SPEED IN MPH < > PRES - MEAN SEA LEVEL PRESSURE IN INCHES OF HG < > WCI - WIND CHILL INDEX < > VSB - VISIBILITY IN MILES < > HX - HEAT INDEX < > TC - TEMPERATURE IN CELSIUS < > VRB - VARIABLE WIND DIRECTION < > < >>>>>>>>>>>>>>>>>>>>>>>>>>>> KEY <<<<<<<<<<<<<<<<<<<<<<<<<<<

USA.gov is the U.S. government's official web portal to all federal, state and local government web resources and services.